Location: Beutels
(47.8767°N, 9.8584°E)
Time: 20:21:14
(UTC+00:00)

Cosmos 1980 Rocket - Pass Details

Date: 19 May 2025
Orbit: 829 x 847 km, 71.0° (Epoch: 20 June)

Event Time Altitude Azimuth Distance (km) Brightness Sun altitude
Rises 20:46:02 0° 334° (NNW) 3,383 7.1 -14.2°
Reaches altitude 10° 20:48:31 10° 338° (NNW) 2,446 5.9 -14.4°
Maximum altitude 20:54:04 61° 58° (ENE) 940 2.4 -15.0°
Enters shadow 20:57:35 23° 133° (SE) 1,712 3.2 -15.3°
